Location: DaltonSkyGazer Observatory
(42.4858°N, 73.1565°W)
Time: 15:44:46
(UTC-04:00)

Helios 1B - Visible Passes

Search period start: 29 April 2016 00:00
Search period end: 09 May 2016 00:00
Orbit: 621 x 624 km, 98.1° (Epoch: 28 April)

Date Brightness Start Highest point End Pass type
(mag) Time Alt. Az. Time Alt. Az. Time Alt. Az.
29 Apr 6.7 00:46:59 24° NNW 00:46:59 24° NNW 00:48:47 10° NNW visible
29 Apr 6.7 23:28:02 19° NE 23:28:02 19° NE 23:30:04 10° NNE visible
30 Apr 6.9 01:05:15 19° NW 01:05:15 19° NW 01:06:44 10° NNW visible
30 Apr 6.5 23:46:19 25° NNE 23:46:19 25° NNE 23:48:39 10° N visible
01 May 7.1 01:23:32 15° NW 01:23:32 15° NW 01:24:28 10° NW visible
02 May 6.3 00:04:36 30° NNE 00:04:36 30° NNE 00:07:03 10° N visible
02 May 7.3 01:41:49 10° NW 01:41:49 10° NW 01:41:52 10° NW visible
03 May 6.2 00:22:52 33° N 00:22:52 33° N 00:25:18 10° N visible
03 May 7.0 23:03:56 13° NE 23:03:56 13° NE 23:05:25 10° NE visible
04 May 6.3 00:41:09 30° NNW 00:41:09 30° NNW 00:43:27 10° NNW visible
04 May 6.7 23:22:13 18° NE 23:22:13 18° NE 23:24:30 10° NNE visible
05 May 6.5 00:59:26 24° NW 00:59:26 24° NW 01:01:27 10° NNW visible
05 May 6.3 23:40:30 25° NE 23:40:30 25° NE 23:43:10 10° N visible
06 May 6.8 01:17:43 18° NW 01:17:43 18° NW 01:19:16 10° NW visible
06 May 6.0 23:58:47 33° NNE 23:58:47 33° NNE 00:01:36 10° N visible
07 May 7.1 01:36:00 13° WNW 01:36:00 13° WNW 01:36:48 10° NW visible
08 May 5.8 00:17:03 39° N 00:17:03 39° N 00:19:55 10° N visible
08 May 7.1 22:58:07 11° ENE 22:58:13 11° ENE 22:59:25 10° NE visible
